Flag for Canada Weather past 2 weeks in Rouyn-Noranda, Quebec, Canada

Now
43 °F

Clear.


Feels Like: 43 °F
Forecast: 45 / 70 °F
Wind: No wind

Location: Rouyn Airport

Current Time: Aug 29, 2014 at 5:06:52 AM

Latest Report: Aug 29, 2014 at 4:00 AM


Visibility: 15 mi

Pressure: 30.16 "Hg

Humidity: 93%

Dew point: 41 °F

Location of Rouyn-NorandaLocation

Historic Weather in Rouyn-Noranda — Graph

°F

Rouyn-Noranda temperature yesterday

Maximum temperature yesterday: 68 °F (at 4:00 PM)
Minimum temperature yesterday: 48 °F (at 11:00 PM)
Average temperature yesterday: 57 °F

Past Weeks' High & Low Weather Summary

 TemperatureHumidityPressure
High82 °F (Aug 23, 3:00 PM)100% (Aug 14, 8:00 AM)30.25 "Hg (Aug 14, 8:00 AM)
Low34 °F (Aug 18, 5:00 AM)35% (Aug 18, 5:00 PM)29.73 "Hg (Aug 16, 5:00 AM)
Average60 °F80%29.99 "Hg
* Reported Aug 14 3:00 AM — Aug 29 3:00 AM, Rouyn-Noranda, Weather by CustomWeather, © 2014

Note: Actual official high and low records may vary slightly from our data, if they occured in-between our weather recording intervals... More about our weather records

Advertising

Rouyn-Noranda weather history for previous 24 hours

 ConditionsComfort  
Time TempWeatherWind HumidityBarometerVisibility
3:00 AM
Aug 29
43 °FClear.No wind87%30.16 "Hg15 mi
2:00 AM43 °FClear.No wind93%30.15 "Hg15 mi
1:00 AM43 °FClear.No wind93%30.16 "Hg15 mi
12:00 AM45 °FClear.2 mph93%30.14 "Hg15 mi
11:00 PM
Aug 28
48 °FClear.No wind87%30.13 "Hg15 mi
10:00 PM50 °FClear.No wind88%30.13 "Hg15 mi
9:00 PM54 °FSunny.2 mph82%30.12 "Hg15 mi
8:00 PM61 °FSunny.3 mph72%30.10 "Hg15 mi
7:00 PM66 °FPassing clouds.7 mph52%30.10 "Hg15 mi
6:00 PM66 °FPassing clouds.9 mph56%30.10 "Hg15 mi
5:00 PM68 °FScattered clouds.7 mph49%30.09 "Hg15 mi
4:00 PM68 °FPartly sunny.9 mph53%30.09 "Hg15 mi
3:00 PM66 °FScattered clouds.10 mph56%30.09 "Hg15 mi
2:00 PM66 °FScattered clouds.13 mph52%30.10 "Hg15 mi
1:00 PM63 °FPartly sunny.9 mph59%30.09 "Hg15 mi
12:00 PM63 °FPartly sunny.9 mph59%30.09 "Hg15 mi
11:00 AM59 °FPartly sunny.15 mph59%30.09 "Hg15 mi
10:00 AM57 °FBroken clouds.12 mph67%30.08 "Hg15 mi
9:00 AM55 °FScattered clouds.13 mph72%30.08 "Hg15 mi
8:00 AM52 °FBroken clouds.8 mph88%30.06 "Hg15 mi
7:00 AM50 °FScattered showers. Passing clouds.6 mph94%30.06 "Hg15 mi
6:00 AM50 °FPassing clouds.6 mph94%30.04 "Hg15 mi
5:00 AM52 °FMostly cloudy.7 mph94%30.03 "Hg15 mi
Weather by CustomWeather, © 2014

See weather overviewHow to use our weather pages